Regional Weather Roundup
Issued by NWS

Home | Current Version | Previous Version | Graphics & Text | Print | Product List | Glossary On
Versions: 1 2 3 4 5 6 7 8 9 10 11 12 13 14 15 16 17 18 19 20 21 22 23 24 25 26 27 28 29 30 31 32 33 34 35 36 37 38 39 40 41 42 43 44 45 46 47 48 49 50
000
ASUS43 KOAX 260902
RWRNE

WEATHER ROUNDUP FOR NEBRASKA
NATIONAL WEATHER SERVICE OMAHA NE
300 AM CST SUN FEB 26 2017

NOTES: SATELLITE DATA IS BEING USED TO AUGMENT CLOUD COVER ABOVE
       12000 FEET.
       "FAIR" INDICATES FEW OR NO CLOUDS BELOW 12,000 FEET WITH NO
       SIGNIFICANT WEATHER AND/OR OBSTRUCTIONS TO VISIBILITY.

  * THESE STATIONS DO NOT REPORT WEATHER SUCH AS RAIN...SNOW OR FOG.

NEZ001>004-019>022-054>056-261000-
NEBRASKA PANHANDLE

CITY           SKY/WX    TMP DP  RH WIND       PRES   REMARKS
SCOTTSBLUFF    CLEAR      8   2  76 NW6       29.81S WCI  -2
ALLIANCE       CLEAR      7   1  76 W14       29.77S WCI -10
CHADRON        CLEAR      7  -1  70 SW6       29.80R WCI  -3
KIMBALL        CLEAR     16   6  66 W16       29.80S WCI   0
SIDNEY         CLEAR     18   5  57 W15       29.82S WCI   4
$$

NEZ057>060-069>072-079>082-261000-
SOUTHWEST NEBRASKA

CITY           SKY/WX    TMP DP  RH WIND       PRES   REMARKS
NORTH PLATTE   CLEAR     17  11  77 W7        29.84S WCI   8
IMPERIAL       PTCLDY    23  16  74 W8        29.87R WCI  14
LEXINGTON      CLEAR     21  15  76 CALM      29.87S
MCCOOK         CLOUDY    25  16  68 W8        29.88R WCI  16
OGALLALA       CLEAR     16   8  73 W8        29.85R WCI   5
$$

NEZ005>010-023>029-035>040-094-261000-
NORTH CENTRAL NEBRASKA

CITY           SKY/WX    TMP DP  RH WIND       PRES   REMARKS
VALENTINE      CLEAR      9   2  73 W7        29.77R WCI  -2
AINSWORTH      CLEAR     16   9  74 W12       29.76S WCI   3
BROKEN BOW     CLEAR     22  12  65 W9        29.82S WCI  12
O`NEILL        CLEAR     19  11  74 SW9       29.78S WCI   7
ORD            CLEAR     23  11  60 SW13      29.81F WCI  11
THEDFORD       CLEAR     21  11  64 W18G24    29.80R WCI   7
$$

NEZ041-046>049-061>064-073>077-083>087-261000-
SOUTH CENTRAL NEBRASKA

CITY           SKY/WX    TMP DP  RH WIND       PRES   REMARKS
GRAND ISLAND   CLEAR     29  19  66 SW12      29.87F WCI  19
AURORA         CLEAR     29  19  67 SW12      29.87F WCI  19
HASTINGS       MOCLDY    35  20  54 SW10      29.87F WCI  27
HEBRON         CLOUDY    32  23  69 NW3       29.92F
HOLDREGE       CLOUDY    31  14  51 SW8       29.87F WCI  23
KEARNEY *      MOCLDY    30  18  59 SW8       29.88S WCI  23
YORK           CLEAR     28  21  74 SW8       29.87F WCI  20
$$

NEZ011>018-030>034-042>045-261000-
NORTHEAST NEBRASKA

CITY           SKY/WX    TMP DP  RH WIND       PRES   REMARKS
NORFOLK        CLEAR     21  13  71 SW9       29.81S WCI  11
ALBION         CLEAR     23  14  69 W5        29.82F WCI  17
BLAIR          PTCLDY    32  25  76 W8        29.85R WCI  25
FREMONT        CLOUDY    28  22  80 SW3       29.86S
TEKAMAH        CLOUDY    23  18  81 SW6       29.85F WCI  16
WAYNE          CLEAR     19  16  85 SW6       29.81S WCI  11
$$

NEZ050>053-065>068-078-088>093-261000-
SOUTHEAST NEBRASKA

CITY           SKY/WX    TMP DP  RH WIND       PRES   REMARKS
LINCOLN        PTCLDY    35  22  58 SW10      29.89F WCI  27
OMAHA EPPLEY   MOCLDY    34  22  61 SW13      29.86S WCI  25
BEATRICE       CLOUDY    30  23  75 SW5       29.93S WCI  25
FALLS CITY     CLEAR     32  19  58 SW10      29.95S WCI  24
NEBRASKA CITY  PTCLDY    30  18  61 SW12      29.91S WCI  21
PLATTSMOUTH    CLEAR     31  19  58 SW16G22   29.87F WCI  20
$$

NEZ044-045-051>053-067-261000-
OMAHA AREA

CITY           SKY/WX    TMP DP  RH WIND       PRES   REMARKS
OMAHA EPPLEY   MOCLDY    34  22  61 SW13      29.86S WCI  25
BLAIR          PTCLDY    32  25  76 W8        29.85R WCI  25
FREMONT        CLOUDY    28  22  80 SW3       29.86S
MILLARD        PTCLDY    34  25  70 SW6       29.86F WCI  28
OFFUTT AFB     PTCLDY    31  20  63 SW10      29.87F WCI  23
PLATTSMOUTH    CLEAR     31  19  58 SW16G22   29.87F WCI  20
WAHOO          FAIR      31  22  68 SW10      29.87S WCI  22
$$




USA.gov is the U.S. government's official web portal to all federal, state and local government web resources and services.